World > North America > United States > Arizona

Hourly Winona, AZ Regional Weather

Feedback E-mail the Weather

Quick WX

Winona, AZ Weather Maps

°F °C°F °C
Winona Weather Map
UTC Time: 7/3/2022, 20:37
Your Time:

Winona, AZ Regional Weather

Expires:202207032100;;626653
ASUS45 KPSR 032010
RWRAZ 

ARIZONA HOURLY REGIONAL WEATHER ROUNDUP
NATIONAL WEATHER SERVICE PHOENIX AZ
100 PM MST SUN JUL 03 2022

NOTE: FAIR INDICATES FEW OR NO CLOUDS BELOW 12,000 FEET WITH NO
SIGNIFICANT WEATHER AND/OR OBSTRUCTIONS TO VISIBILITY.


AZZ004>008-015-016-018-032100-
NORTH CENTRAL ARIZONA
  
CITY           SKY/WX    TMP DP  RH WIND       PRES   REMARKS
GRAND CANYON   PTSUNNY   83  41  22 SW20G30   30.15F                  
WILLIAMS       MOSUNNY   81  41  24 SW14G24   30.18F                  
PRESCOTT       SUNNY     86  45  23 SW14G32   30.07F                  
FLAGSTAFF      MOSUNNY   78  44  29 SW17G28   30.21F                  
PAYSON         PTSUNNY   88  45  22 S8G20     30.11F                  
PAGE           SUNNY     94  37  13 SW14G22   29.94F                  
$$


SKY/WX - Weather  TMP - Temperature  DP - Dew Point  RH - Humidity
WIND - Wind Direction/Speed PRES - Barometric Pressure VSB - Visibility
WCI - Wind Chill Index E13G22 Wind - East Wind 13 mph/Gusts of 22 mph

Trending Headlines

Winona Radar Loop



Winona Quick Facts


National Two Day Weather Forecast


E-mail the Winona Weather Forecast

Voice your opinion or tell us about page issues...